Date String (YYYY-MM-DD hh:mm:ss) UTC,Instrument flags,absolute air pressure of the measurement (hPa),sample flow rate (lpm),inlet stack bypass flow (lpm),air temperature of the measurement (°C),ambient temperature measured by the external sensor (°C),aerosol sample conditioner tube jacket temperature (°C),OPC LED temperature (°C),internal box temperature (°C),relative humidity of the measurement (%),span deviation,mass concentration of particles derived from Lorenz-Mie calculation of OPC scattering (μg/m³),mass concentration of particles derived from Lorenz-Mie calculation of OPC scattering (μg/m³),mass concentration of particles derived from Lorenz-Mie calculation of OPC scattering (μg/m³)
DateTimeUTC,F1_M11,P_M11,Q1_M11,Q2_M11,T1_M11,T2_M11,T3_M11,T4_M11,T5_M11,U1_M11,ZSPAN_M11,X0_M11,X2_M11,X1_M11
2024-02-29 15:00:00,SystemResetWarning,0826.2,5.00,000.00,018.4,017.8,000.0,026.8,020.0,09.8,0000.0,0010.55,0004.15,0002.70
2024-02-29 15:01:00,SystemResetWarning,0826.2,5.00,000.00,018.4,017.9,000.0,026.8,020.0,09.8,0000.0,0010.35,0004.06,0002.71
2024-02-29 15:02:00,SystemResetWarning,0826.2,5.00,000.00,018.4,017.9,000.0,026.8,020.0,10.0,0000.0,0010.94,0004.04,0002.73
2024-02-29 15:03:00,SystemResetWarning,0826.2,5.00,000.00,018.5,017.9,000.0,026.8,020.1,09.7,0000.0,0011.89,0004.13,0002.78
2024-02-29 15:04:00,SystemResetWarning,0826.2,5.00,000.00,018.5,017.9,000.0,026.7,020.1,09.9,0000.0,0012.04,0004.20,0002.80
2024-02-29 15:05:00,SystemResetWarning,0826.2,4.99,000.00,018.5,017.9,000.0,026.7,020.1,10.4,0000.0,0012.84,0004.26,0002.80
2024-02-29 15:06:00,SystemResetWarning,0826.3,4.99,000.00,018.5,017.9,000.0,026.8,020.1,10.6,0000.0,0012.48,0004.25,0002.80
2024-02-29 15:07:00,SystemResetWarning,0826.2,5.00,000.00,018.5,017.9,000.0,026.8,020.1,10.3,0000.0,0012.72,0004.22,0002.79
2024-02-29 15:08:00,SystemResetWarning,0826.2,5.00,000.00,018.5,018.0,000.0,026.8,020.1,09.9,0000.0,0012.49,0004.21,0002.82
2024-02-29 15:09:00,SystemResetWarning,0826.2,5.01,000.00,018.5,018.0,000.0,026.8,020.1,09.9,0000.0,0012.47,0004.21,0002.85
2024-02-29 15:10:00,SystemResetWarning,0826.2,5.00,000.00,018.5,018.0,000.0,026.8,020.1,10.0,0000.0,0012.37,0004.23,0002.88
2024-02-29 15:11:00,SystemResetWarning,0826.2,4.99,000.00,018.5,018.0,000.0,026.8,020.1,10.0,0000.0,0012.37,0004.23,0002.89
2024-02-29 15:12:00,SystemResetWarning,0826.2,4.99,000.00,018.5,018.0,000.0,026.8,020.1,10.2,0000.0,0012.64,0004.25,0002.88
2024-02-29 15:13:00,SystemResetWarning,0826.2,5.00,000.00,018.5,018.0,000.0,026.8,020.1,10.7,0000.0,0012.26,0004.26,0002.86
2024-02-29 15:14:00,SystemResetWarning,0826.2,5.00,000.00,018.5,018.0,000.0,026.8,020.1,10.9,0000.0,0012.46,0004.20,0002.83
2024-02-29 15:15:00,SystemResetWarning,0826.2,5.00,000.00,018.5,018.0,000.0,026.8,020.1,10.5,0000.0,0013.02,0004.22,0002.83
2024-02-29 15:16:00,SystemResetWarning,0826.2,5.00,000.00,018.5,018.0,000.0,026.8,020.1,10.0,0000.0,0013.18,0004.24,0002.84
2024-02-29 15:17:00,SystemResetWarning,0826.2,5.01,000.00,018.5,018.0,000.0,026.8,020.1,10.4,0000.0,0013.22,0004.30,0002.85
2024-02-29 15:18:00,SystemResetWarning,0826.2,5.00,000.00,018.5,018.0,000.0,026.8,020.1,10.6,0000.0,0012.92,0004.36,0002.86
2024-02-29 15:19:00,SystemResetWarning,0826.2,5.00,000.00,018.5,018.0,000.0,026.8,020.1,10.1,0000.0,0012.55,0004.41,0002.87
2024-02-29 15:20:00,SystemResetWarning,0826.2,5.00,000.00,018.6,018.0,000.0,026.8,020.2,09.6,0000.0,0013.12,0004.42,0002.85
2024-02-29 15:21:00,SystemResetWarning,0826.2,5.00,000.00,018.6,018.0,000.0,026.8,020.2,10.0,0000.0,0013.59,0004.42,0002.83
2024-02-29 15:22:00,SystemResetWarning,0826.2,5.00,000.00,018.6,018.0,000.0,026.8,020.2,10.4,0000.0,0013.96,0004.40,0002.83
2024-02-29 15:23:00,SystemResetWarning,0826.2,5.00,000.00,018.6,018.0,000.0,026.8,020.2,10.4,0000.0,0015.09,0004.41,0002.83
2024-02-29 15:24:00,SystemResetWarning,0826.2,5.01,000.00,018.6,018.0,000.0,026.8,020.2,10.5,0000.0,0015.13,0004.42,0002.85
2024-02-29 15:25:00,SystemResetWarning,0826.2,5.00,000.00,018.6,018.0,000.0,026.8,020.2,10.6,0000.0,0014.16,0004.47,0002.88
2024-02-29 15:26:00,SystemResetWarning,0826.2,5.00,000.00,018.6,018.0,000.0,026.8,020.2,10.4,0000.0,0013.15,0004.43,0002.88
2024-02-29 15:27:00,SystemResetWarning,0826.2,5.00,000.00,018.6,018.0,000.0,026.8,020.2,10.4,0000.0,0012.39,0004.40,0002.89
2024-02-29 15:28:00,SystemResetWarning,0826.2,5.00,000.00,018.6,018.0,000.0,026.8,020.2,10.8,0000.0,0012.14,0004.34,0002.88
2024-02-29 15:29:00,SystemResetWarning,0826.2,5.00,000.00,018.6,018.1,000.0,026.8,020.2,11.0,0000.0,0012.08,0004.33,0002.90
2024-02-29 15:30:00,SystemResetWarning,0826.2,5.00,000.00,018.6,018.1,000.0,026.9,020.2,10.4,0000.0,0012.18,0004.30,0002.90
2024-02-29 15:31:00,SystemResetWarning,0826.2,5.00,000.00,018.6,018.1,000.0,026.9,020.3,10.4,0000.0,0012.13,0004.28,0002.91
2024-02-29 15:32:00,SystemResetWarning,0826.2,5.00,000.00,018.7,018.1,000.0,026.9,020.2,10.4,0000.0,0011.62,0004.25,0002.92
2024-02-29 15:33:00,SystemResetWarning,0826.2,4.99,000.00,018.7,018.1,000.0,026.9,020.2,10.2,0000.0,0011.24,0004.25,0002.93
2024-02-29 15:34:00,SystemResetWarning,0826.1,5.01,000.00,018.7,018.1,000.0,026.9,020.3,09.7,0000.0,0010.24,0004.24,0002.94
2024-02-29 15:35:00,SystemResetWarning,0826.1,5.01,000.00,018.7,018.2,000.0,026.9,020.3,09.9,0000.0,0010.26,0004.25,0002.95
2024-02-29 15:36:00,SystemResetWarning,0826.2,4.99,000.00,018.7,018.2,000.0,026.9,020.3,10.0,0000.0,0010.17,0004.20,0002.93
2024-02-29 15:37:00,SystemResetWarning,0826.2,4.99,000.00,018.7,018.2,000.0,026.9,020.3,10.2,0000.0,0010.19,0004.24,0002.96
2024-02-29 15:38:00,SystemResetWarning,0826.2,4.99,000.00,018.7,018.2,000.0,026.9,020.3,10.4,0000.0,0010.15,0004.25,0002.99
2024-02-29 15:39:00,SystemResetWarning,0826.2,5.01,000.00,018.7,018.2,000.0,026.9,020.3,10.4,0000.0,0010.28,0004.26,0003.03
2024-02-29 15:40:00,SystemResetWarning,0826.2,5.00,000.00,018.7,018.2,000.0,026.9,020.4,10.4,0000.0,0011.06,0004.29,0003.04
2024-02-29 15:41:00,SystemResetWarning,0826.2,5.00,000.00,018.8,018.2,000.0,026.9,020.4,10.7,0000.0,0011.74,0004.34,0003.07
2024-02-29 15:42:00,SystemResetWarning,0826.2,5.01,000.00,018.8,018.3,000.0,026.9,020.4,10.6,0000.0,0011.50,0004.40,0003.11
2024-02-29 15:43:00,SystemResetWarning,0826.1,4.99,000.00,018.8,018.3,000.0,027.0,020.4,10.6,0000.0,0011.77,0004.49,0003.14
2024-02-29 15:44:00,SystemResetWarning,0826.1,5.00,000.00,018.8,018.3,000.0,027.0,020.4,10.8,0000.0,0012.03,0004.51,0003.16
2024-02-29 15:45:00,SystemResetWarning,0826.0,5.00,000.00,018.8,018.3,000.0,027.0,020.4,10.4,0000.0,0011.91,0004.53,0003.19
2024-02-29 15:46:00,SystemResetWarning,0826.1,5.00,000.00,018.8,018.3,000.0,027.0,020.4,09.9,0000.0,0011.84,0004.52,0003.23
2024-02-29 15:47:00,SystemResetWarning,0826.1,5.00,000.00,018.8,018.3,000.0,027.0,020.4,09.8,0000.0,0012.11,0004.55,0003.26
2024-02-29 15:48:00,SystemResetWarning,0826.2,5.00,000.00,018.8,018.4,000.0,027.0,020.5,09.9,0000.0,0012.77,0004.54,0003.27
2024-02-29 15:49:00,SystemResetWarning,0826.2,5.00,000.00,018.9,018.4,000.0,027.0,020.5,09.8,0000.0,0013.34,0004.58,0003.30
2024-02-29 15:50:00,SystemResetWarning,0826.2,5.00,000.00,018.9,018.4,000.0,027.0,020.5,09.7,0000.0,0013.55,0004.63,0003.32
2024-02-29 15:51:00,SystemResetWarning,0826.1,5.00,000.00,018.9,018.4,000.0,027.0,020.5,09.9,0000.0,0013.06,0004.68,0003.36
2024-02-29 15:52:00,SystemResetWarning,0826.0,5.00,000.00,018.9,018.4,000.0,027.0,020.5,10.0,0000.0,0012.41,0004.68,0003.39
2024-02-29 15:53:00,SystemResetWarning,0826.0,5.00,000.00,018.9,018.4,000.0,027.0,020.5,10.4,0000.0,0012.97,0004.68,0003.42
2024-02-29 15:54:00,SystemResetWarning,0826.0,5.01,000.00,018.9,018.5,000.0,027.1,020.5,10.7,0000.0,0013.03,0004.71,0003.43
2024-02-29 15:55:00,SystemResetWarning,0825.9,5.00,000.00,018.9,018.5,000.0,027.1,020.6,10.3,0000.0,0012.78,0004.72,0003.45
2024-02-29 15:56:00,SystemResetWarning,0825.9,5.00,000.00,019.0,018.5,000.0,027.1,020.6,10.3,0000.0,0012.99,0004.74,0003.47
2024-02-29 15:57:00,SystemResetWarning,0825.9,4.99,000.00,019.0,018.5,000.0,027.1,020.6,10.2,0000.0,0013.22,0004.79,0003.49
2024-02-29 15:58:00,SystemResetWarning,0825.9,5.00,000.00,019.0,018.5,000.0,027.1,020.6,10.8,0000.0,0014.77,0004.81,0003.50
2024-02-29 15:59:00,SystemResetWarning,0825.9,5.01,000.00,019.0,018.6,000.0,027.1,020.6,11.2,0000.0,0014.64,0004.87,0003.51
